FW6665 Weather Reports


time (UTC)temp
F
wind
direction
speed
knots
gust
knots
rain 1hr
in
rain 24hr
in
rain mn
in
humidity
%
barometer
mb
20260505181204 58 111 0.0 0.9 0.00 0.00 0.00 62 1008.8
20260505180705 58 111 0.0 0.9 0.00 0.00 0.00 61 1008.8
20260505174704 58 111 0.0 2.6 0.00 0.00 0.00 60 1008.9
20260505174205 58 111 0.0 2.6 0.00 0.00 0.00 59 1008.8
20260505173705 58 111 0.0 1.7 0.00 0.00 0.00 59 1008.8
20260505173203 58 111 0.0 1.7 0.00 0.00 0.00 58 1008.8
20260505172704 58 111 0.0 1.7 0.00 0.00 0.00 58 1008.8
20260505172205 59 111 0.0 1.7 0.00 0.00 0.00 57 1008.9
20260505171704 59 111 0.0 1.7 0.00 0.00 0.00 56 1008.8
20260505171205 59 111 0.0 1.7 0.00 0.00 0.00 56 1008.9
20260505170704 59 111 0.9 1.7 0.00 0.00 0.00 57 1008.9
20260505170204 59 113 0.0 1.7 0.00 0.00 0.00 57 1008.9
20260505165727 59 113 0.0 1.7 0.00 0.00 0.00 58 1009.0
20260505165204 59 113 0.9 1.7 0.00 0.00 0.00 57 1009.1
20260505164704 59 110 0.0 1.7 0.00 0.00 0.00 57 1009.1
20260505164204 59 110 0.0 1.7 0.00 0.00 0.00 56 1008.9
20260505163209 60 113 0.0 2.6 0.00 0.00 0.00 56 1008.9
20260505162704 60 113 0.0 2.6 0.00 0.00 0.00 56 1008.9
20260505162204 60 113 0.0 2.6 0.00 0.00 0.00 56 1008.9
20260505161729 60 113 0.0 6.1 0.00 0.00 0.00 56 1008.9
20260505160705 61 111 0.0 6.1 0.00 0.00 0.00 55 1008.9
20260505160204 61 110 1.7 3.5 0.00 0.00 0.00 53 1008.9
20260505153231 62 154 0.9 1.7 0.00 0.00 0.00 56 1008.9
20260505152704 61 155 0.0 2.6 0.00 0.00 0.00 57 1009.1
20260505152215 61 155 0.9 2.6 0.00 0.00 0.00 55 1009.1
20260505151705 61 157 0.9 1.7 0.00 0.00 0.00 55 1009.0
20260505151204 61 161 0.9 2.6 0.00 0.00 0.00 54 1009.1
20260505150704 62 161 0.9 2.6 0.00 0.00 0.00 54 1009.1
20260505150203 62 157 0.0 3.5 0.00 0.00 0.00 55 1009.1
20260505140205 62 125 0.0 4.3 0.00 0.00 0.00 55 1009.2
20260505130205 63 127 0.0 4.3 0.00 0.00 0.00 54 1009.5
20260505124704 63 138 0.9 2.6 0.00 0.00 0.00 54 1009.5
20260505124205 63 258 0.9 2.6 0.00 0.00 0.00 55 1009.5
20260505123704 63 255 0.0 2.6 0.00 0.00 0.00 54 1009.5
20260505123204 63 257 0.0 1.7 0.00 0.00 0.00 56 1009.5
20260505122705 63 258 0.0 1.7 0.00 0.00 0.00 56 1009.5
20260505122205 63 259 0.0 1.7 0.00 0.00 0.00 56 1009.5
20260505121706 63 258 0.9 1.7 0.00 0.00 0.00 56 1009.6
20260505121204 63 259 0.9 1.7 0.00 0.00 0.00 57 1009.5
20260505120704 63 259 0.9 2.6 0.00 0.00 0.00 56 1009.5
20260505120204 64 259 0.0 2.6 0.00 0.00 0.00 56 1009.4
20260505115704 63 259 0.0 2.6 0.00 0.00 0.00 56 1009.5
20260505115204 63 247 0.9 4.3 0.00 0.00 0.00 57 1009.6
20260505114704 63 247 0.0 4.3 0.00 0.00 0.00 56 1009.5
20260505114205 64 275 0.9 4.3 0.00 0.00 0.00 56 1009.6
20260505113705 64 292 1.7 3.5 0.00 0.00 0.00 56 1009.5
20260505111704 63 288 1.7 3.5 0.00 0.00 0.00 60 1009.7
20260505111204 62 285 1.7 3.5 0.00 0.00 0.00 59 1009.8
20260505110704 62 303 0.0 4.3 0.00 0.00 0.00 61 1009.7
20260505110204 62 303 0.9 5.2 0.00 0.00 0.00 62 1009.8
20260505102205 61 292 0.9 4.3 0.00 0.00 0.00 66 1010.1
20260505101711 60 290 0.9 4.3 0.00 0.00 0.00 66 1010.1
20260505101204 60 295 1.7 7.8 0.00 0.00 0.00 67 1010.2
20260505100704 60 269 1.7 7.8 0.00 0.00 0.00 68 1010.2
20260505100204 59 228 0.9 7.8 0.00 0.00 0.00 69 1010.2
20260505095704 60 238 1.7 5.2 0.00 0.00 0.00 68 1010.3
20260505095204 60 234 1.7 5.2 0.00 0.00 0.00 67 1010.2
20260505094704 60 271 1.7 5.2 0.00 0.00 0.00 67 1010.3
20260505094205 60 286 1.7 3.5 0.00 0.00 0.00 68 1010.3
20260505093704 60 295 1.7 3.5 0.00 0.00 0.00 69 1010.3
20260505093204 60 292 0.9 3.5 0.00 0.00 0.00 71 1010.3
20260505092705 59 288 0.9 3.5 0.00 0.00 0.00 71 1010.3
20260505092204 59 298 0.9 2.6 0.00 0.00 0.00 72 1010.3
20260505091704 58 300 0.9 2.6 0.00 0.00 0.00 74 1010.5
20260505091204 57 299 0.0 2.6 0.00 0.00 0.00 74 1010.4
20260505090204 57 298 0.9 1.7 0.00 0.00 0.00 73 1010.5
20260505085704 57 299 0.9 1.7 0.00 0.00 0.00 75 1010.5
20260505085205 56 299 0.9 1.7 0.00 0.00 0.00 75 1010.6
20260505084704 56 299 0.9 1.7 0.00 0.00 0.00 76 1010.6
20260505084210 56 300 0.9 2.6 0.00 0.00 0.00 77 1010.7
20260505083205 55 302 0.0 3.5 0.00 0.00 0.00 78 1010.6
20260505082705 55 303 0.0 3.5 0.00 0.00 0.00 79 1010.6
20260505082204 55 302 0.0 2.6 0.00 0.00 0.00 79 1010.7
20260505081704 55 302 0.9 3.5 0.00 0.00 0.00 79 1010.7
20260505081204 55 303 0.9 3.5 0.00 0.00 0.00 79 1010.6
20260505080705 55 303 0.9 3.5 0.00 0.00 0.00 78 1010.7
20260505080205 55 309 0.9 2.6 0.00 0.00 0.00 79 1010.6
20260505075705 55 305 0.0 2.6 0.00 0.00 0.00 79 1010.6
20260505075205 55 299 0.9 2.6 0.00 0.00 0.00 80 1010.6
20260505074704 55 299 0.0 2.6 0.00 0.00 0.00 81 1010.6
20260505074204 55 299 0.0 2.6 0.00 0.00 0.00 81 1010.6
20260505073705 55 299 0.9 2.6 0.00 0.00 0.00 81 1010.5
20260505073204 54 299 0.9 2.6 0.00 0.00 0.00 82 1010.5
20260505072205 54 299 0.9 2.6 0.00 0.00 0.00 82 1010.6
20260505071706 54 300 0.9 2.6 0.00 0.00 0.00 83 1010.6
20260505071204 54 300 0.0 3.5 0.00 0.00 0.00 83 1010.7
20260505070704 53 300 0.0 3.5 0.00 0.00 0.00 83 1010.8
20260505070214 53 300 0.9 3.5 0.00 0.00 0.00 84 1010.7
20260505065703 53 300 0.9 3.5 0.00 0.00 0.00 83 1010.8
20260505065204 53 288 0.9 3.5 0.00 0.00 0.00 84 1010.8
20260505064705 53 286 0.9 1.7 0.00 0.00 0.00 83 1010.8
20260505063704 52 288 0.0 2.6 0.00 0.00 0.00 83 1010.7
20260505062703 52 288 0.0 1.7 0.00 0.00 0.00 83 1010.8
20260505062205 52 288 0.0 1.7 0.00 0.00 0.00 82 1010.8
20260505061704 52 288 0.0 0.9 0.00 0.00 0.00 82 1010.9
20260505061204 52 288 0.0 0.9 0.00 0.00 0.00 82 1010.8
20260505060704 52 288 0.0 0.9 0.00 0.00 0.00 82 1010.7
20260505055205 52 288 0.0 0.9 0.00 0.00 0.00 82 1010.8
20260505054204 52 288 0.0 0.9 0.00 0.00 0.00 82 1010.7
20260505053205 52 288 0.0 0.9 0.00 0.00 0.00 82 1010.8
20260505052704 52 288 0.0 0.9 0.00 0.00 0.00 82 1010.8
20260505052205 52 288 0.0 1.7 0.00 0.00 0.00 82 1010.9
20260505051704 52 288 0.0 1.7 0.00 0.00 0.00 82 1010.8
20260505051205 52 288 0.0 1.7 0.00 0.00 0.00 82 1010.9
20260505050705 52 288 0.0 0.9 0.00 0.00 0.00 82 1010.9
20260505041704 52 288 0.0 0.9 0.00 0.00 0.00 81 1010.9
20260505041204 52 288 0.0 0.9 0.00 0.00 0.00 81 1010.8
20260505040706 52 288 0.0 0.9 0.00 0.00 0.00 81 1010.8
20260505035705 52 288 0.0 0.9 0.00 0.00 0.00 81 1010.9
20260505035204 52 288 0.0 0.9 0.00 0.00 0.00 81 1010.9
20260505034704 52 288 0.0 0.9 0.00 0.00 0.00 81 1010.9
20260505034205 52 288 0.0 0.9 0.00 0.00 0.00 81 1010.8
20260505033705 52 288 0.0 0.9 0.00 0.00 0.00 81 1010.8
20260505033205 52 288 0.0 0.9 0.00 0.00 0.00 80 1010.9
20260505032704 52 288 0.0 0.9 0.00 0.00 0.00 80 1011.0
20260505032204 52 288 0.0 0.9 0.00 0.00 0.00 80 1011.0
20260505031704 52 288 0.0 0.9 0.00 0.00 0.00 80 1011.0
20260505030204 52 288 0.0 0.9 0.00 0.00 0.00 80 1011.0
20260505025705 52 288 0.0 0.9 0.00 0.00 0.00 80 1011.2
20260505025205 52 288 0.0 0.9 0.00 0.00 0.00 80 1011.1
20260505024704 52 289 0.0 0.9 0.00 0.00 0.00 80 1011.1
20260505024211 53 289 0.0 0.9 0.00 0.00 0.00 79 1011.1
20260505023205 53 289 0.0 0.9 0.00 0.00 0.00 79 1011.2
20260505022731 53 289 0.0 0.9 0.00 0.00 0.00 79 1011.2
20260505022204 53 289 0.0 1.7 0.00 0.00 0.00 79 1011.2
20260505021704 53 289 0.0 1.7 0.00 0.00 0.00 79 1011.1
20260505021204 53 289 0.0 1.7 0.00 0.00 0.00 79 1011.2
20260505020704 53 290 0.0 0.9 0.00 0.00 0.00 79 1011.2
20260505015704 53 290 0.0 0.9 0.00 0.00 0.00 79 1011.1
20260505015205 53 290 0.0 0.9 0.00 0.00 0.00 79 1011.1
20260505014704 53 290 0.0 0.9 0.00 0.00 0.00 79 1011.1
20260505014205 53 290 0.0 0.9 0.00 0.00 0.00 79 1011.1
20260505013704 53 290 0.0 0.9 0.00 0.00 0.00 79 1011.2
20260505013207 53 290 0.0 1.7 0.00 0.00 0.00 79 1011.3
20260505011704 53 290 0.0 0.9 0.00 0.00 0.00 80 1011.6
20260505011204 53 290 0.0 0.9 0.00 0.00 0.00 80 1011.7
20260505010704 53 290 0.0 0.9 0.00 0.00 0.00 80 1011.8
20260505010205 53 290 0.0 0.9 0.00 0.00 0.00 80 1011.7
20260505005204 53 290 0.0 1.7 0.00 0.00 0.00 80 1011.8
20260505004704 53 290 0.0 1.7 0.00 0.00 0.00 80 1011.7
20260505004205 53 290 0.0 0.9 0.00 0.00 0.00 80 1011.7
20260505003705 53 290 0.0 0.9 0.00 0.00 0.00 81 1011.7
20260505003204 53 290 0.0 1.7 0.00 0.00 0.00 81 1011.7
20260505002705 53 290 0.0 1.7 0.00 0.00 0.00 81 1011.7
20260505002205 53 290 0.0 1.7 0.00 0.00 0.00 81 1011.8
20260505001704 53 289 0.0 0.9 0.00 0.00 0.00 81 1011.8
20260505001205 53 289 0.0 0.9 0.00 0.00 0.00 81 1011.9
20260505000707 54 289 0.0 0.9 0.00 0.00 0.00 81 1011.9
20260504235705 54 289 0.0 1.7 0.00 0.00 0.00 81 1011.9
20260504235204 54 289 0.0 1.7 0.00 0.00 0.00 82 1011.9
20260504234706 54 289 0.0 1.7 0.00 0.00 0.00 81 1012.0
20260504234205 54 289 0.0 1.7 0.00 0.00 0.00 82 1012.0
20260504233705 54 289 0.0 1.7 0.00 0.00 0.00 82 1012.1
20260504233204 54 289 0.0 1.7 0.00 0.00 0.00 82 1012.1
20260504232710 54 292 0.0 0.9 0.00 0.00 0.00 82 1012.2
20260504232205 54 296 0.0 0.9 0.00 0.00 0.00 82 1012.1
20260504231705 54 296 0.0 1.7 0.00 0.00 0.00 82 1012.1
20260504231214 54 296 0.0 1.7 0.00 0.00 0.00 82 1012.2
20260504225705 55 296 0.0 0.9 0.00 0.00 0.00 82 1012.1
20260504225205 55 298 0.0 1.7 0.00 0.00 0.00 82 1012.1
20260504224704 55 298 0.0 1.7 0.00 0.00 0.00 82 1012.1
20260504224204 55 298 0.0 0.9 0.00 0.00 0.00 83 1012.0
20260504223706 55 298 0.0 0.9 0.00 0.00 0.00 83 1012.1
20260504222705 55 298 0.0 0.9 0.00 0.00 0.00 83 1012.1
20260504221704 56 298 0.0 0.9 0.00 0.00 0.00 83 1012.1
20260504221205 56 298 0.0 0.9 0.00 0.00 0.00 83 1012.0
20260504220705 56 298 0.0 0.9 0.00 0.00 0.00 83 1012.0
20260504215205 56 298 0.0 1.7 0.00 0.00 0.00 83 1012.1
20260504214705 56 298 0.0 1.7 0.00 0.00 0.00 83 1012.1
20260504214204 56 298 0.0 0.9 0.00 0.00 0.00 83 1012.1
20260504213704 56 299 0.0 0.9 0.00 0.00 0.00 83 1012.1
20260504212204 56 299 0.0 0.0 0.00 0.00 0.00 83 1012.1
20260504211704 56 299 0.0 0.9 0.00 0.00 0.00 83 1012.1
20260504211204 56 299 0.0 0.9 0.00 0.00 0.00 83 1012.1
20260504210704 56 299 0.0 0.9 0.00 0.00 0.00 83 1012.1
20260504210204 56 299 0.0 0.9 0.00 0.00 0.00 83 1012.2
20260504205704 56 299 0.0 0.9 0.00 0.00 0.00 83 1012.1
20260504205204 56 299 0.0 0.9 0.00 0.00 0.00 83 1012.1
20260504204704 56 299 0.0 0.9 0.00 0.00 0.00 83 1012.1
20260504204204 56 299 0.0 0.0 0.00 0.00 0.00 83 1012.1
20260504203704 56 299 0.0 0.9 0.00 0.00 0.00 83 1012.1
20260504203206 56 299 0.0 0.9 0.00 0.00 0.00 83 1012.2
20260504202704 56 299 0.0 0.9 0.00 0.00 0.00 83 1012.1
20260504202204 56 299 0.0 0.9 0.00 0.00 0.00 83 1012.2
20260504201704 57 299 0.0 0.9 0.00 0.00 0.00 83 1012.2
20260504201205 57 299 0.0 0.9 0.00 0.00 0.00 83 1012.2
20260504200204 57 299 0.0 0.9 0.00 0.00 0.00 83 1012.1
20260504195705 57 299 0.0 0.9 0.00 0.00 0.00 83 1012.1
20260504195204 57 299 0.0 0.9 0.00 0.00 0.00 82 1012.1
20260504194706 57 299 0.0 0.9 0.00 0.00 0.00 82 1012.0
20260504194205 57 299 0.0 0.9 0.00 0.00 0.00 82 1011.9
20260504193704 57 299 0.0 0.9 0.00 0.00 0.00 82 1011.8
20260504193204 58 299 0.0 1.7 0.00 0.00 0.00 82 1011.8
20260504192705 58 299 0.0 1.7 0.00 0.00 0.00 82 1011.8
20260504192204 58 299 0.0 0.9 0.00 0.00 0.00 81 1011.8
20260504191205 58 299 0.0 1.7 0.00 0.00 0.00 81 1011.7
20260504190204 59 300 0.0 1.7 0.00 0.00 0.00 79 1011.6
20260504185705 59 299 0.0 0.9 0.00 0.00 0.00 79 1011.5
20260504185204 59 299 0.0 1.7 0.00 0.00 0.00 78 1011.5
20260504184705 59 299 0.0 1.7 0.00 0.00 0.00 78 1011.5
20260504184204 59 299 0.0 1.7 0.00 0.00 0.00 78 1011.5
20260504183705 59 299 0.0 1.7 0.00 0.00 0.00 77 1011.5
20260504183208 60 299 0.0 1.7 0.00 0.00 0.00 76 1011.5
20260504182704 60 299 0.0 0.9 0.00 0.00 0.00 76 1011.4
20260504182204 60 299 0.0 2.6 0.00 0.00 0.00 76 1011.4
20260504181704 61 299 0.0 2.6 0.00 0.00 0.00 76 1011.3